Flag for United Kingdom Weather past 2 weeks in Chester, England, United Kingdom

Now
52 °F

Partly sunny.


Feels Like: 48 °F
Forecast: 38 / 56 °F
Wind: 12 mph from Southwest

Location: Hawarden Airport


UV Index: 3 (Moderate)

Visibility: N/A


Pressure: 30.09 "Hg

Humidity: 82%

Dew point: 46 °F

Location of ChesterLocation

Historic Weather in Chester

°F

Chester temperature yesterday

Maximum temperature yesterday: 63 °F (at 4:20 PM)
Minimum temperature yesterday: 37 °F (at 6:20 AM)
Average temperature yesterday: 54 °F

Past Weeks' High & Low Weather Summary

 TemperatureHumidityPressure
High63 °F (Apr 6, 12:20 PM)100% (Apr 4, 8:50 AM)30.45 "Hg (Apr 4, 8:50 AM)
Low37 °F (Apr 15, 7:20 AM)45% (Apr 15, 2:20 PM)29.56 "Hg (Apr 2, 5:20 PM)
Average53 °F73%30.00 "Hg
* Reported Apr 2 6:20 AM — Apr 17 6:50 AM, Chester, Weather by CustomWeather, © 2014

Note: Actual official high and low records may vary slightly from our data, if they occured in-between our weather recording intervals... More about our weather records

Advertising

Historic Weather Conditions — Data for Previous 24 hours

 ConditionsComfort  
Time TempWeatherWind HumidityBarometerVisibility
6:50 AM
Apr 17
48 °FPassing clouds.9 mph82%30.09 "HgN/A
6:20 AM50 °FPassing clouds.7 mph76%30.07 "HgN/A
8:50 PM
Apr 16
54 °FPassing clouds.2 mph67%30.18 "HgN/A
8:20 PM55 °FPassing clouds.No wind63%30.18 "HgN/A
7:50 PM57 °FSunny.3 mph59%30.18 "Hg10 mi
7:20 PM57 °FSunny.5 mph63%30.18 "Hg10 mi
6:50 PM59 °FSunny.5 mph59%30.18 "Hg10 mi
6:20 PM61 °FSunny.7 mph55%30.18 "Hg10 mi
5:50 PM61 °FPassing clouds.7 mph55%30.18 "HgN/A
5:20 PM63 °FPassing clouds.7 mph52%30.21 "HgN/A
4:50 PM63 °FPassing clouds.13 mph56%30.21 "HgN/A
4:20 PM63 °FPassing clouds.15 mph52%30.21 "HgN/A
3:50 PM61 °FPassing clouds.14 mph55%30.24 "HgN/A
3:20 PM61 °FPassing clouds.14 mph55%30.24 "HgN/A
2:50 PM59 °FPassing clouds.16 mph59%30.24 "HgN/A
2:20 PM61 °FPassing clouds.15 mph55%30.27 "HgN/A
1:50 PM59 °FPassing clouds.14 mph55%30.27 "HgN/A
1:20 PM59 °FSunny.13 mph59%30.27 "Hg10 mi
12:50 PM57 °FPassing clouds.13 mph59%30.30 "HgN/A
12:20 PM55 °FSunny.13 mph63%30.30 "Hg10 mi
11:50 AM54 °FSunny.16 mph67%30.30 "Hg10 mi
11:20 AM52 °FSunny.15 mph72%30.30 "Hg10 mi
10:50 AM50 °FSunny.15 mph71%30.30 "Hg10 mi
10:20 AM50 °FSunny.15 mph71%30.33 "Hg10 mi
9:50 AM50 °FPassing clouds.15 mph71%30.33 "HgN/A
9:20 AM48 °FPassing clouds.12 mph76%30.33 "HgN/A
8:50 AM46 °FSunny.14 mph82%30.33 "Hg10 mi
8:20 AM43 °FSunny.10 mph87%30.33 "Hg10 mi
Weather by CustomWeather, © 2014

See weather overview